This demonstration page uses our WeatherBlox Daily Observations layout. Learn more.

Left ArrowRight Arrow

41.86663, -103.66717

Hourly Observations for March 31, 2020

Temp ( °F °C ) Dew Point ( °F °C ) Humidity (%) Winds ( mph kmh ) Pressure ( in mb ) Visibility ( mi km ) Precip ( " mm )
12:53 am 00:53 Clear 35 1.7 32 undefined 89 89 E 7 11 30.00 1016 10 16 N/A
1:53 am 01:53 Clear 35 1.7 33 0.6 93 93 ENE 8 13 29.99 1016 10 16 N/A
2:53 am 02:53 Clear 34 1.1 31 -0.6 89 89 N 5 7 29.98 1015 10 16 N/A
3:53 am 03:53 Clear 31 -0.6 27 -2.8 85 85 N N/A 29.98 1015 10 16 N/A
4:53 am 04:53 Clear 32 undefined 26 -3.3 79 79 N N/A 29.96 1014 10 16 N/A
5:53 am 05:53 Clear 31 -0.6 27 -2.8 85 85 E 7 11 29.96 1015 10 16 N/A
6:53 am 06:53 Sunny 34 1.1 29 -1.7 82 82 SE 5 7 29.96 1015 10 16 N/A
7:53 am 07:53 Sunny 40 4.4 33 0.6 77 77 E 5 7 29.96 1014 10 16 N/A
8:53 am 08:53 Sunny 51 10.6 35 1.7 54 54 N N/A 29.92 1013 10 16 N/A
9:53 am 09:53 Sunny 60 15.6 30 -1.1 32 32 W 26 43 29.87 1012 10 16 N/A
10:53 am 10:53 Sunny 64 17.8 28 -2.2 26 26 W 23 37 29.85 1011 10 16 N/A
11:53 am 11:53 Mostly Sunny 67 19.4 27 -2.8 22 22 W 28 44 29.83 1010 10 16 N/A
12:53 pm 12:53 Mostly Cloudy 67 19.4 26 -3.3 21 21 W 24 39 29.80 1009 10 16 N/A
1:53 pm 13:53 Mostly Cloudy 70 21.1 28 -2.2 21 21 W 26 43 29.77 1008 10 16 N/A
2:53 pm 14:53 Mostly Sunny 69 20.6 27 -2.8 21 21 WNW 23 37 29.75 1007 10 16 N/A
3:53 pm 15:53 Sunny 69 20.6 25 -3.9 19 19 W 28 44 29.75 1007 10 16 N/A
4:53 pm 16:53 Sunny 66 18.9 25 -3.9 21 21 W 14 22 29.75 1008 10 16 N/A
5:53 pm 17:53 Mostly Sunny 65 18.3 27 -2.8 24 24 WNW 20 31 29.76 1008 10 16 N/A
6:53 pm 18:53 Partly Cloudy 63 17.2 28 -2.2 27 27 WNW 12 19 29.75 1007 10 16 N/A
7:53 pm 19:53 Mostly Clear 59 15 28 -2.2 31 31 W 5 7 29.75 1008 10 16 N/A
8:53 pm 20:53 Mostly Cloudy 54 12.2 29 -1.7 38 38 W 5 7 29.75 1007 10 16 N/A
9:53 pm 21:53 Clear 50 10 31 -0.6 48 48 S 6 9 29.74 1007 10 16 N/A
10:53 pm 22:53 Partly Cloudy 46 7.8 33 0.6 61 61 SE 6 9 29.74 1007 10 16 N/A
11:53 pm 23:53 Partly Cloudy 46 7.8 33 0.6 61 61 ENE 5 7 29.70 1006 10 16 N/A

Powered by AerisWeather